Weather History for KVWU - May, 2013

Change the Weather History Date:

Sunday, May 12, 2013

  Actual Average (KBDE) Record (KBDE)
Temperature  
Mean Temperature 35 °F -  
Max Temperature 51 °F 64 °F 85 °F (1958)
Min Temperature 19 °F 38 °F 21 °F (2013)
Degree Days  
Heating Degree Days 30    
Moisture  
Dew Point 22 °F    
Average Humidity 58    
Maximum Humidity 100    
Minimum Humidity 30    
Precipitation  
Precipitation 0.00 in - - ()
Sea Level Pressure  
Sea Level Pressure 30.17 in    
Wind  
Wind Speed 2 mph (WSW)    
Max Wind Speed 8 mph    
Max Gust Speed -    
Visibility 10 miles    
Events      
Averages and records for this station are not official NWS values.
T = Trace of Precipitation, MM = Missing Value Source: NWS Daily Summary

Daily Weather History Graph

Daily Weather History Graph

Search for Another Location

Airport or City:

Trip Planner

Search our weather history database for the weather conditions in past years. The results will help you decide how hot, cold, wet, or windy it might be!

Date:

Astronomy

May. 12, 2013 Rise Set
Actual Time 5:42 AM CDT 8:47 PM CDT
Civil Twilight 5:05 AM CDT 9:24 PM CDT
Nautical Twilight 4:18 AM CDT 10:12 PM CDT
Astronomical Twilight 3:19 AM CDT 11:11 PM CDT
Moon 7:35 AM CDT (5/12) 11:16 PM CDT (5/12)
Length of Visible Light 16h 18m
Length of Day
15h 04m
Waxing Crescent, 7% of the Moon is Illuminated
May 12
Waxing Crescent
May 17
First Quarter
May 24
Full
May 31
Last Quarter
Jun 8
New

Hourly Weather History & Observations

Time (CDT) Temp. Windchill Dew Point Humidity Pressure Visibility Wind Dir Wind Speed Gust Speed Precip Events Conditions
12:14 AM 32.0 °F 28.7 °F 21.2 °F 64% 30.21 in 10.0 mi NNW 3.5 mph - N/A   Clear
12:33 AM 32.0 °F - 21.2 °F 64% 30.21 in 10.0 mi Calm Calm - N/A   Clear
12:53 AM 30.2 °F 26.7 °F 21.2 °F 69% 30.21 in 10.0 mi NNW 3.5 mph - N/A   Clear
1:14 AM 30.2 °F - 21.2 °F 69% 30.21 in 10.0 mi Calm Calm - N/A   Clear
1:33 AM 30.2 °F - 21.2 °F 69% 30.21 in 10.0 mi Calm Calm - N/A   Clear
1:53 AM 28.4 °F - 21.2 °F 74% 30.21 in 10.0 mi Calm Calm - N/A   Clear
2:13 AM 24.8 °F - 19.4 °F 80% 30.21 in 10.0 mi Calm Calm - N/A   Clear
2:33 AM 23.0 °F - 19.4 °F 86% 30.21 in 10.0 mi Calm Calm - N/A   Clear
2:53 AM 23.0 °F - 19.4 °F 86% 30.20 in 10.0 mi Calm Calm - N/A   Clear
3:13 AM 23.0 °F - 19.4 °F 86% 30.20 in 10.0 mi Calm Calm - N/A   Clear
3:33 AM 21.2 °F - 21.2 °F 100% 30.20 in 10.0 mi Calm Calm - N/A   Clear
3:54 AM 21.2 °F - 19.4 °F 93% 30.21 in 10.0 mi Calm Calm - N/A   Clear
4:33 AM 21.2 °F - 19.4 °F 93% 30.21 in 10.0 mi Calm Calm - N/A   Clear
4:54 AM 19.4 °F - 17.6 °F 93% 30.21 in 10.0 mi Calm Calm - N/A   Clear
5:13 AM 19.4 °F - 17.6 °F 93% 30.21 in 10.0 mi Calm Calm - N/A   Clear
5:33 AM 19.4 °F - 17.6 °F 93% 30.21 in 10.0 mi Calm Calm - N/A   Clear
5:54 AM 19.4 °F - 17.6 °F 93% 30.21 in 10.0 mi Calm Calm - N/A   Clear
6:13 AM 19.4 °F - 17.6 °F 93% 30.22 in 10.0 mi Calm Calm - N/A   Clear
6:33 AM 23.0 °F - 21.2 °F 93% 30.22 in 10.0 mi Calm Calm - N/A   Clear
6:53 AM 26.6 °F - 24.8 °F 93% 30.23 in 10.0 mi Calm Calm - N/A   Clear
7:13 AM 28.4 °F - 26.6 °F 93% 30.23 in 10.0 mi Calm Calm - N/A   Clear
7:33 AM 30.2 °F - 26.6 °F 86% 30.23 in 10.0 mi Calm Calm - N/A   Clear
7:53 AM 33.8 °F - 24.8 °F 70% 30.23 in 10.0 mi Calm Calm - N/A   Clear
8:13 AM 35.6 °F - 24.8 °F 65% 30.23 in 10.0 mi Calm Calm - N/A   Clear
8:33 AM 35.6 °F - 24.8 °F 65% 30.23 in 10.0 mi Calm Calm - N/A   Clear
8:53 AM 35.6 °F 32.8 °F 23.0 °F 60% 30.23 in 10.0 mi West 3.5 mph - N/A   Clear
9:13 AM 37.4 °F 33.8 °F 23.0 °F 56% 30.24 in 10.0 mi West 4.6 mph - N/A   Clear
9:33 AM 37.4 °F 32.8 °F 24.8 °F 60% 30.24 in 10.0 mi SW 5.8 mph - N/A   Clear
9:53 AM 37.4 °F 32.8 °F 23.0 °F 56% 30.23 in 10.0 mi WSW 5.8 mph - N/A   Clear
10:13 AM 39.2 °F 33.6 °F 23.0 °F 52% 30.23 in 10.0 mi WSW 8.1 mph - N/A   Clear
10:33 AM 39.2 °F 34.2 °F 23.0 °F 52% 30.23 in 10.0 mi WSW 6.9 mph - N/A   Clear
10:53 AM 39.2 °F 33.6 °F 24.8 °F 56% 30.23 in 10.0 mi WSW 8.1 mph - N/A   Clear
11:13 AM 41.0 °F 35.8 °F 24.8 °F 53% 30.23 in 10.0 mi SW 8.1 mph - N/A   Clear
11:34 AM 41.0 °F 35.8 °F 24.8 °F 53% 30.22 in 10.0 mi SW 8.1 mph - N/A   Clear
11:53 AM 42.8 °F 38.0 °F 24.8 °F 49% 30.21 in 10.0 mi SW 8.1 mph - N/A   Clear
12:13 PM 42.8 °F 39.3 °F 24.8 °F 49% 30.20 in 10.0 mi SW 5.8 mph - N/A   Clear
12:34 PM 44.6 °F 40.7 °F 24.8 °F 46% 30.20 in 10.0 mi SW 6.9 mph - N/A   Clear
12:53 PM 46.4 °F 43.5 °F 24.8 °F 43% 30.19 in 10.0 mi SW 5.8 mph - N/A   Clear
1:13 PM 46.4 °F 43.5 °F 23.0 °F 40% 30.17 in 10.0 mi SW 5.8 mph - N/A   Clear
1:34 PM 46.4 °F 42.9 °F 23.0 °F 40% 30.17 in 10.0 mi WSW 6.9 mph - N/A   Clear
1:53 PM 48.2 °F - 23.0 °F 37% 30.16 in 10.0 mi Calm Calm - N/A   Clear
2:13 PM 48.2 °F - 23.0 °F 37% 30.16 in 10.0 mi West 4.6 mph - N/A   Clear
2:34 PM 48.2 °F - 23.0 °F 37% 30.16 in 10.0 mi SW 5.8 mph - N/A   Clear
2:53 PM 48.2 °F - 23.0 °F 37% 30.16 in 10.0 mi SW 5.8 mph - N/A   Clear
3:13 PM 50.0 °F - 23.0 °F 35% 30.15 in 10.0 mi WSW 6.9 mph - N/A   Clear
3:34 PM 50.0 °F - 21.2 °F 32% 30.14 in 10.0 mi WSW 4.6 mph - N/A   Clear
3:53 PM 51.8 °F - 21.2 °F 30% 30.13 in 10.0 mi WSW 6.9 mph - N/A   Clear
4:13 PM 51.8 °F - 21.2 °F 30% 30.13 in 10.0 mi WSW 6.9 mph - N/A   Clear
4:34 PM 51.8 °F - 23.0 °F 33% 30.13 in 10.0 mi WSW 6.9 mph - N/A   Clear
4:53 PM 51.8 °F - 21.2 °F 30% 30.12 in 10.0 mi WSW 5.8 mph - N/A   Clear
5:13 PM 51.8 °F - 23.0 °F 33% 30.12 in 10.0 mi West 5.8 mph - N/A   Clear
5:33 PM 51.8 °F - 23.0 °F 33% 30.12 in 10.0 mi WSW 3.5 mph - N/A   Clear
5:53 PM 51.8 °F - 21.2 °F 30% 30.11 in 10.0 mi West 3.5 mph - N/A   Clear
6:13 PM 51.8 °F - 24.8 °F 35% 30.11 in 10.0 mi West 4.6 mph - N/A   Clear
6:34 PM 51.8 °F - 21.2 °F 30% 30.11 in 10.0 mi Calm Calm - N/A   Clear
6:53 PM 51.8 °F - 21.2 °F 30% 30.10 in 10.0 mi NE 4.6 mph - N/A   Clear
7:13 PM 50.0 °F - 21.2 °F 32% 30.10 in 10.0 mi East 3.5 mph - N/A   Clear
7:34 PM 48.2 °F - 21.2 °F 34% 30.10 in 10.0 mi NE 5.8 mph - N/A   Clear
7:53 PM 48.2 °F - 21.2 °F 34% 30.10 in 10.0 mi NE 3.5 mph - N/A   Clear
8:13 PM 46.4 °F 45.2 °F 23.0 °F 40% 30.10 in 10.0 mi NE 3.5 mph - N/A   Clear
8:33 PM 44.6 °F - 24.8 °F 46% 30.09 in 10.0 mi Calm Calm - N/A   Clear
8:53 PM 42.8 °F - 23.0 °F 46% 30.09 in 10.0 mi Calm Calm - N/A   Clear
9:13 PM 39.2 °F - 21.2 °F 49% 30.09 in 10.0 mi Calm Calm - N/A   Clear
9:33 PM 37.4 °F - 23.0 °F 56% 30.09 in 10.0 mi Calm Calm - N/A   Clear
9:53 PM 35.6 °F - 24.8 °F 65% 30.09 in 10.0 mi Calm Calm - N/A   Clear
10:13 PM 35.6 °F - 23.0 °F 60% 30.09 in 10.0 mi Calm Calm - N/A   Clear
10:33 PM 33.8 °F - 24.8 °F 70% 30.09 in 10.0 mi Calm Calm - N/A   Clear
10:53 PM 32.0 °F 28.7 °F 21.2 °F 64% 30.08 in 10.0 mi East 3.5 mph - N/A   Clear
11:13 PM 32.0 °F - 21.2 °F 64% 30.08 in 10.0 mi Calm Calm - N/A   Clear
11:33 PM 35.6 °F 30.7 °F 21.2 °F 56% 30.07 in 10.0 mi ESE 5.8 mph - N/A   Clear
11:53 PM 35.6 °F 32.8 °F 19.4 °F 52% 30.07 in 10.0 mi ESE 3.5 mph - N/A   Clear